Flag for Canada Weather past 2 weeks in Calgary, Alberta, Canada

Now
70 °F

Passing clouds.


Feels Like: 70 °F
Forecast: 57 / 70 °F
Wind: 9 mph from Northeast

Location: Calgary International

Current Time: Jul 3, 2015 at 11:39:00 PM

Latest Report: Jul 3, 2015 at 11:00 PM


Visibility: 15 mi

Pressure: 29.80 "Hg (26.33 "Hg at 1063m altitude)

Humidity: 64%

Dew point: 57 °F

Location of CalgaryLocation

Historic Weather in Calgary — Graph

°F

Calgary temperature yesterday

Maximum temperature yesterday: 81 °F (at 4:00 PM)
Minimum temperature yesterday: 54 °F (at 5:00 AM)
Average temperature yesterday: 69 °F

Past Weeks' High & Low Weather Summary

 TemperatureHumidityPressure
High86 °F (Jun 27, 3:00 PM)94% (Jun 30, 3:00 AM)30.19 "Hg (Jun 30, 3:00 AM)
Low41 °F (Jun 22, 5:00 AM)23% (Jun 19, 6:00 PM)29.77 "Hg (Jul 3, 9:00 PM)
Average66 °F58%30.02 "Hg
* Reported Jun 18 10:00 PM — Jul 3 10:00 PM, Calgary, Weather by CustomWeather, © 2015

Note: Actual official high and low records may vary slightly from our data, if they occured in-between our weather recording intervals... More about our weather records

Advertising

Calgary weather history for previous 24 hours

 ConditionsComfort  
Time TempWeatherWind HumidityBarometerVisibility
10:00 PM
Fri, Jul 3
72 °FThunderstorms. Broken clouds.7 mph61%29.78 "Hg20 mi
9:00 PM77 °FBroken clouds.7 mph47%29.77 "Hg30 mi
8:00 PM81 °FBroken clouds.9 mph37%29.78 "Hg30 mi
7:00 PM82 °FPartly sunny.6 mph35%29.79 "Hg40 mi
6:00 PM82 °FPartly sunny.10 mph32%29.80 "Hg40 mi
5:00 PM84 °FScattered clouds.9 mph31%29.80 "Hg40 mi
4:00 PM84 °FScattered clouds.13 mph29%29.80 "Hg40 mi
3:00 PM84 °FScattered clouds.5 mph29%29.83 "Hg40 mi
2:00 PM84 °FPassing clouds.7 mph31%29.84 "Hg40 mi
1:00 PM81 °FScattered clouds.15 mph32%29.85 "Hg40 mi
12:00 PM82 °FScattered clouds.8 mph28%29.86 "Hg40 mi
11:00 AM81 °FScattered clouds.10 mph30%29.87 "Hg40 mi
10:00 AM79 °FPassing clouds.13 mph34%29.87 "Hg40 mi
9:00 AM75 °FPassing clouds.8 mph41%29.89 "Hg40 mi
8:00 AM66 °FPassing clouds.No wind73%29.91 "Hg40 mi
7:00 AM61 °FPassing clouds.2 mph83%29.93 "Hg40 mi
6:00 AM59 °FPassing clouds.2 mph82%29.93 "Hg40 mi
5:00 AM63 °FPassing clouds.2 mph77%29.92 "Hg15 mi
4:00 AM64 °FPassing clouds.3 mph78%29.93 "Hg15 mi
3:00 AM64 °FPassing clouds.5 mph78%29.93 "Hg15 mi
2:00 AM64 °FPassing clouds.6 mph78%29.96 "Hg15 mi
1:00 AM68 °FPassing clouds.6 mph73%29.97 "Hg15 mi
12:00 AM68 °FPassing clouds.8 mph73%29.97 "Hg15 mi
11:00 PM
Thu, Jul 2
70 °FPartly cloudy.7 mph69%29.98 "Hg15 mi
Weather by CustomWeather, © 2015

See weather overviewHow to use our weather pages